Location: Quaker Farms
(41.4276°N, 73.1557°W)
Time: 19:57:43
(UTC+00:00)

S-56A Canister/Altair - Pass Details

Date: 19 June 2021
Orbit: 631 x 2501 km, 38.9° (Epoch: 30 July)

Event Time Altitude Azimuth Distance (km) Brightness Sun altitude
Rises 12:57:33 0° 274° (W) 3,071 10.1 38.0°
Reaches altitude 10° 12:59:40 10° 270° (W) 2,261 9.6 38.4°
Maximum altitude 13:04:45 58° 192° (SSW) 1,057 8.7 39.4°
Drops below altitude 10° 13:12:03 10° 115° (ESE) 3,211 11.7 40.7°
Sets 13:15:35 0° 112° (ESE) 4,490 12.2 41.4°
